Montauk, NY

10:51 AM EDT on October 19, 2017 (GMT -0400)
Montauk

Weather History for KMTP - October, 2012

Change the Weather History Date:

Friday, October 5, 2012

  Actual Average (KHTO) Record (KHTO)
Temperature  
Mean Temperature 69 °F -  
Max Temperature 75 °F 66 °F 82 °F (1967)
Min Temperature 63 °F 49 °F 33 °F (2007)
Cooling Degree Days 4    
Growing Degree Days 19 (Base 50)    
Moisture  
Dew Point 62 °F    
Average Humidity 85    
Maximum Humidity 97    
Minimum Humidity 51    
Precipitation  
Precipitation 0.00 in - - ()
Sea Level Pressure  
Sea Level Pressure 30.01 in    
Wind  
Wind Speed 3 mph (WSW)    
Max Wind Speed 7 mph    
Max Gust Speed -    
Averages and records for this station are not official NWS values.
T = Trace of Precipitation, MM = Missing Value Source: NWS Daily Summary

Daily Weather History Graph

Daily Weather History Graph

Search for Another Location

Airport or City:

Trip Planner

Search our weather history database for the weather conditions in past years. The results will help you decide how hot, cold, wet, or windy it might be!

Date:

Astronomy

Oct. 05, 2012 Rise Set
Actual Time 6:48 AM EDT 6:22 PM EDT
Civil Twilight 6:21 AM EDT 6:49 PM EDT
Nautical Twilight 5:49 AM EDT 7:21 PM EDT
Astronomical Twilight 5:17 AM EDT 7:53 PM EDT
Moon 9:40 PM EDT (10/5) 11:56 AM EDT (10/5)
Length of Visible Light 12h 28m
Length of Day
11h 33m
Waning Gibbous, 74% of the Moon is Illuminated
Oct 5
Waning Gibbous
Oct 8
Last Quarter
Oct 15
New
Oct 21
First Quarter
Oct 29
Full

Hourly Weather History & Observations

Time (EDT) Temp. Dew Point Humidity Pressure Visibility Wind Dir Wind Speed Gust Speed Precip Events Conditions
12:54 AM 64.9 °F 64.0 °F 97% 30.05 in - Calm Calm - N/A   Unknown
2:54 AM 66.0 °F 64.9 °F 96% 30.04 in - Calm Calm - N/A   Unknown
3:54 AM 66.0 °F 64.0 °F 93% 30.03 in - WNW 3.5 mph - N/A   Unknown
4:54 AM 64.9 °F 63.0 °F 93% 30.04 in - WNW 3.5 mph - N/A   Unknown
5:54 AM 64.9 °F 63.0 °F 93% 30.04 in - West 3.5 mph - N/A   Unknown
7:54 AM 63.0 °F 61.0 °F 93% 30.07 in - Variable 5.8 mph - N/A   Unknown
9:54 AM 66.9 °F 63.0 °F 87% 30.06 in - West 5.8 mph - N/A   Unknown
10:54 AM 68.0 °F 63.0 °F 84% 30.05 in - West 6.9 mph - N/A   Unknown
11:54 AM 71.1 °F 64.0 °F 78% 30.04 in - Variable 4.6 mph - N/A   Unknown
12:54 PM 70.0 °F 64.0 °F 81% 30.04 in - West 5.8 mph - N/A   Unknown
2:54 PM 73.9 °F 57.9 °F 57% 29.99 in - WSW 4.6 mph - N/A   Unknown
3:54 PM 75.0 °F 55.9 °F 51% 29.98 in - WSW 4.6 mph - N/A   Unknown
5:54 PM 69.1 °F 63.0 °F 81% 29.98 in - Calm Calm - N/A   Unknown
6:54 PM 66.9 °F 62.1 °F 84% 29.99 in - Calm Calm - N/A   Unknown
7:54 PM 66.0 °F 63.0 °F 90% 29.99 in - Calm Calm - N/A   Unknown
8:54 PM 66.0 °F 63.0 °F 90% 29.98 in - SSW 3.5 mph - N/A   Unknown
9:54 PM 66.0 °F 61.0 °F 84% 29.98 in - SSW 3.5 mph - N/A   Unknown
10:54 PM 66.0 °F 62.1 °F 87% 29.96 in - SW 3.5 mph - N/A   Unknown
11:54 PM 64.9 °F 61.0 °F 87% 29.96 in - Calm Calm - N/A   Unknown